Regional Weather Roundup
Issued by NWS

Home | Current Version | Previous Version | Text Only | Print | Product List | Glossary On
Versions: 1 2 3 4 5 6 7 8 9 10 11 12 13 14 15 16 17 18 19 20 21 22 23 24 25 26 27 28 29 30 31 32 33 34 35 36 37 38 39 40 41 42 43 44 45 46 47 48 49 50
000
ASUS43 KDMX 310007
RWRIA

WEATHER ROUNDUP FOR IOWA
NATIONAL WEATHER SERVICE DES MOINES IA
700 PM CDT THU JUL 30 2015

NOTE: "FAIR" INDICATES FEW OR NO CLOUDS BELOW 12,000 FEET WITH NO
SIGNIFICANT WEATHER AND/OR OBSTRUCTIONS TO VISIBILITY.

* - THESE STATIONS ARE NOT NWS STATIONS...THUS NOT UNDER NWS
QUALITY CONTROL.  THEY ALSO DO NOT REPORT WEATHER SUCH
AS PRECIPITATION OR FOG.

IAZ001>003-012>014-020>022-031>034-043>046-310100-
   NORTHWEST IOWA

CITY           SKY/WX    TMP DP  RH WIND       PRES   REMARKS
CARROLL *      SUNNY     81  70  69 W5        30.11F HX  84
CHEROKEE *     SUNNY     83  69  63 W6        30.10F HX  86
DENISON *      HAZE      81  66  61 SW7       30.10F VSB 3/4 HX  83
LE MARS *      SUNNY     84  68  58 W6        30.10F HX  87
ORANGE CITY *  SUNNY     82  66  57 W3        30.11S HX  85
SHELDON *      SUNNY     82  68  61 CALM      30.09F HX  85
SIOUX CITY     SUNNY     85  69  58 SW6       30.09F HX  89
6HR MIN TEMP:  83; 6HR MAX TEMP:  88;

SPENCER        SUNNY     85  64  49 W6        30.10F HX  86
6HR MIN TEMP:  84; 6HR MAX TEMP:  87;

STORM LAKE *   SUNNY     82  68  61 W6        30.12F HX  85
$$

IAZ055>058-069>071-079>083-090>094-310100-
   SOUTHWEST IOWA

CITY           SKY/WX    TMP DP  RH WIND       PRES   REMARKS
ATLANTIC *     SUNNY     82  68  61 SW3       30.12F HX  85
AUDUBON *      SUNNY     82  68  61 CALM      30.13F HX  85
CLARINDA *     SUNNY     84  68  58 SW3       30.14F HX  87
COUNCIL BLFS * SUNNY     86  64  48 S7        30.12F HX  87
CRESTON *      SUNNY     82  66  57 W6        30.14F HX  85
HARLAN  *      SUNNY     82  70  65 NW3       30.15F HX  86
LAMONI         SUNNY     84  65  52 W7        30.13F HX  86
6HR MIN TEMP:  84; 6HR MAX TEMP:  87;

RED OAK *      SUNNY     84  68  58 SW6       30.12F HX  87
SHENANDOAH *   SUNNY     84  70  61 S3        30.12F HX  88
$$

IAZ047>049-059>061-072>074-084-310100-
   CENTRAL IOWA

CITY           SKY/WX    TMP DP  RH WIND       PRES   REMARKS
AMES           SUNNY     82  65  56 W8        30.09F HX  84
6HR MIN TEMP:  82; 6HR MAX TEMP:  84;

ANKENY *       SUNNY     84  64  51 W9        30.09F HX  86
CHARITON *     SUNNY     82  66  57 W5        30.11F HX  85
DES MOINES     MOSUNNY   85  63  47 W7        30.09F HX  86
6HR MIN TEMP:  85; 6HR MAX TEMP:  89;

GRINNELL*      SUNNY     82  64  54 W8        30.09F HX  84
KNOXVILLE *    SUNNY     82  64  54 W6        30.09F HX  84
MARSHALLTOWN   SUNNY     82  68  62 W7        30.07F HX  85
6HR MIN TEMP:  82; 6HR MAX TEMP:  85;

PELLA *        SUNNY     84  72  67 W5        30.10F HX  89
PERRY *          N/A     83  68  61 W7        30.10F HX  86
$$

IAZ004>006-015-016-023>025-035-036-310100-
   NORTH CENTRAL IOWA

CITY           SKY/WX    TMP DP  RH WIND       PRES   REMARKS
ALGONA *       SUNNY     82  68  61 W5        30.09F HX  85
CLARION *      SUNNY     81  70  69 W6        30.08F HX  84
ESTHERVILLE    SUNNY     81  63  54 W8        30.09F HX  82
6HR MIN TEMP:  81; 6HR MAX TEMP:  84;

FORT DODGE *   SUNNY     82  66  57 W5        30.10F HX  85
MASON CITY     SUNNY     82  65  56 NW7       30.09F HX  84
6HR MIN TEMP:  82; 6HR MAX TEMP:  86;

FOREST CITY *  SUNNY     81  63  54 W5        30.08F HX  82
IOWA FALLS *     N/A     82  69  63 W6        30.09F HX  86
$$

IAZ007>011-017>019-026>030-037>042-050>054-066-310100-
   NORTHEAST IOWA

CITY           SKY/WX    TMP DP  RH WIND       PRES   REMARKS
CEDAR RAPIDS   SUNNY     81  71  71 W8        30.06F HX  85
6HR MIN TEMP:  81; 6HR MAX TEMP:  85;

CHARLES CITY * SUNNY     81  64  57 W7        30.08F HX  82
CLINTON *      SUNNY     81  66  61 W8        30.06F HX  83
DECORAH *      SUNNY     81  59  47 VRB7      30.05F HX  81
DUBUQUE        SUNNY     81  58  45 NW9       30.06S HX  81
6HR MIN TEMP:  81; 6HR MAX TEMP:  86;

MONTICELLO *   SUNNY     82  64  54 NW8       30.05F HX  84
OELWEIN *      SUNNY     81  64  57 NW5       30.07F HX  82
WATERLOO       SUNNY     83  66  56 NW5       30.05F HX  85
6HR MIN TEMP:  83; 6HR MAX TEMP:  86;

$$

IAZ064-065-067-068-078-310100-
   EAST CENTRAL IOWA

CITY           SKY/WX    TMP DP  RH WIND       PRES   REMARKS
DAVENPORT      SUNNY     82  67  60 W9        30.05F HX  84
6HR MIN TEMP:  82; 6HR MAX TEMP:  85;

IOWA CITY      SUNNY     84  66  54 W10       30.07F HX  86
6HR MIN TEMP:  84; 6HR MAX TEMP:  87;

MT. PLEASANT * SUNNY     86  55  34 W9G17     30.08F HX  84
MUSCATINE *    SUNNY     84  68  58 W9        30.06F HX  87
QUAD CITIES    SUNNY     85  64  49 W12       30.04F HX  86
6HR MIN TEMP:  85; 6HR MAX TEMP:  90;

$$

IAZ062-063-075>077-085>089-095>099-310100-
   SOUTHEAST IOWA

CITY           SKY/WX    TMP DP  RH WIND       PRES   REMARKS
BURLINGTON     SUNNY     84  65  52 NW6       30.07F HX  86
6HR MIN TEMP:  84; 6HR MAX TEMP:  87;

FAIRFIELD *    SUNNY     82  64  54 W8        30.09F HX  84
FORT MADISON * SUNNY     82  64  54 W7        30.09F HX  84
KEOKUK *       SUNNY     86  66  51 W7        30.08F HX  88
OSKALOOSA *      N/A     80  67  63 W3        30.09F HX  83
CENTERVILLE *  SUNNY     82  66  57 W6        30.13F HX  85
OTTUMWA        SUNNY     81  65  58 W7        30.08F HX  83
6HR MIN TEMP:  81; 6HR MAX TEMP:  86;

WASHINGTON *   SUNNY     82  66  57 W8        30.09F HX  85
$$

ABBREVIATIONS USED IN REMARKS
   TC - TEMPERATURES IN CELSIUS
  WCI - WIND CHILL INDEX
   HX - HEAT INDEX
  VSB - VISIBILITY
$$



USA.gov is the U.S. government's official web portal to all federal, state and local government web resources and services.